Overview Statistics Trail Chart Weather Telemetry Raw packets
 

This is the latest recevied weather packets stored in our database for station/object M0JUI-1. If no packets are shown the sender has not sent any weather packets the latest 10 day(s).

<< 14 15 16 17 18 19 20 >>
Time Temp. Humidity Pressure Rain* Wind** Luminosity Snow
1788538377 17.22° C 1% 1014 hPa 0 mm - 102 W/m² -
1788538077 17.22° C 1% 1013.8 hPa 0 mm - 55 W/m² -
1788537778 17.78° C 1% 1014.1 hPa 0 mm - 72 W/m² -
1788537477 17.22° C 1% 1014.1 hPa 0 mm - 102 W/m² -
1788537177 17.22° C 1% 1013.9 hPa 0 mm - 134 W/m² -
1788536877 16.67° C 1% 1013.9 hPa 0 mm - 124 W/m² -
1788536577 17.22° C 1% 1014.1 hPa 0 mm - 124 W/m² -
1788536277 17.22° C 1% 1014.1 hPa 0 mm - 158 W/m² -
1788535977 17.22° C 1% 1014 hPa 0 mm - 119 W/m² -
1788535677 17.22° C 1% 1014.1 hPa 0 mm - 111 W/m² -
1788535377 17.22° C 1% 1014 hPa 0 mm - 131 W/m² -
1788535077 17.22° C 1% 1014.1 hPa 0 mm - 133 W/m² -
1788534777 17.22° C 1% 1014 hPa 0 mm - 163 W/m² -
1788534465 17.22° C 1% 1013.9 hPa 0 mm - 188 W/m² -
1788534165 17.22° C 1% 1014 hPa 0 mm - 153 W/m² -
1788533866 17.22° C 1% 1013.8 hPa 0 mm - 153 W/m² -
1788533553 17.22° C 1% 1013.7 hPa 0 mm - 171 W/m² -
1788533253 17.78° C 1% 1013.8 hPa 0 mm - 183 W/m² -
1788532953 17.22° C 1% 1013.8 hPa 0 mm - 169 W/m² -
1788532641 17.22° C 1% 1013.6 hPa 0 mm - 185 W/m² -
1788532341 17.22° C 1% 1013.8 hPa 0 mm - 209 W/m² -
1788532042 17.78° C 1% 1013.6 hPa 0 mm - 212 W/m² -
1788531729 17.78° C 1% 1013.8 hPa 0 mm - 181 W/m² -
1788531429 17.78° C 1% 1013.7 hPa 0 mm - 193 W/m² -
1788531129 17.22° C 1% 1013.8 hPa 0 mm - 255 W/m² -

* Rain latest hour (hover to see other rain measurements)
** Current wind speed in m/s (hover to see current wind gust speed)